Location: Corine?ti
(46.1333°N, 22.7833°E)
Time: 19:12:42
(UTC+00:00)

Daily predictions for brighter satellites

Satellite Brightness Start Highest point End
(mag) Time Altitude Azimuth Time Altitude Azimuth Time Altitude Azimuth
Meteor 1-24 Rocket 4.0 16:00:58 10° NNW 16:06:41 83° W 16:12:34 10° S
Cosmos 2227 Rocket 2.2 16:01:56 10° NNW 16:07:38 82° ENE 16:13:18 10° SSE
Cosmos 1908 4.5 16:07:16 10° SE 16:10:16 21° E 16:13:15 10° NE
Timation 2 Rocket 4.2 16:04:17 10° NNW 16:11:12 69° ENE 16:17:55 10° SE
Cosmos 494 Rocket 4.2 16:07:28 10° NNW 16:12:33 48° ENE 16:17:33 10° SE
CZ-2C R/B 3.2 16:09:22 10° NNE 16:14:37 38° E 16:19:46 10° SSE
Cosmos 1356 3.5 16:11:19 10° N 16:14:39 53° ENE 16:17:58 10° SSE
USA 215 4.1 16:09:25 10° NE 16:15:33 45° NNW 16:21:42 10° W
Landsat 5 4.0 16:13:08 10° NNE 16:17:14 41° E 16:21:25 10° S
SKYMED 2 3.9 16:15:21 10° NNE 16:19:33 46° E 16:23:43 10° S
Aureole 2 4.2 16:18:16 10° NNW 16:21:13 80° WSW 16:24:19 10° SSE
Okean 2 Rocket 4.0 16:17:46 10° SSW 16:22:06 53° WNW 16:26:30 10° N
Cosmos 1726 3.2 16:20:11 10° SSW 16:23:42 49° WNW 16:27:14 10° N
Cosmos 1470 3.3 16:20:50 10° SSW 16:24:47 66° W 16:28:45 10° N
Okean O Rocket 1.6 16:20:38 10° SSE 16:24:53 60° ENE 16:29:11 10° N
Cosmos 2084 Rocket 3.4 16:21:44 10° SW 16:25:36 71° NW 16:29:30 10° NE
SL-19 R/B 4.3 16:21:51 10° NNE 16:27:44 81° ESE 16:33:19 10° SSW
BREEZE-M DEB (TANK) 4.0 16:20:00 10° W 16:29:15 59° N 16:32:05 13° ENE
Cosmos 1758 3.2 16:27:15 10° S 16:31:15 83° E 16:35:15 10° N
YAOGAN 1 3.3 16:28:26 10° SE 16:32:16 32° ENE 16:36:07 10° N
CZ-4 R/B 2.2 16:29:10 10° SE 16:32:38 30° ENE 16:36:10 10° N
Cosmos 1703 3.9 16:29:08 10° N 16:32:43 32° ENE 16:36:16 10° SE
Cosmos 2082 3.7 16:27:09 10° NNW 16:32:46 67° ENE 16:38:20 10° SE
Okean-O 3.9 16:30:23 10° ESE 16:33:40 21° ENE 16:36:58 10° NNE
Cosmos 1727 Rocket 4.0 16:29:31 10° N 16:35:47 81° E 16:41:59 10° S
Cosmos 1455 Rocket 3.8 16:32:40 10° SSE 16:36:29 29° E 16:40:20 10° NNE
Spot 2 4.1 16:35:28 10° SE 16:39:22 49° ENE 16:43:26 10° N
Cosmos 2150 Rocket 4.0 16:34:54 10° S 16:40:18 70° ESE 16:45:41 10° NNE
Meteor 1-21 Rocket 4.4 16:35:19 10° N 16:41:04 58° ENE 16:46:52 10° SSE
Cosmos 1953 2.6 16:38:09 10° SSE 16:41:59 44° E 16:45:51 10° NNE
H-2A R/B 3.0 16:39:30 10° NE 16:42:51 24° E 16:46:12 10° SSE
ATLAS 3B R/B 2.7 16:39:46 10° SW 16:46:18 84° NW 16:53:12 10° NE
H-2A R/B 2.6 16:45:37 10° S 16:50:53 66° WSW 16:56:19 10° NNW
CZ-4B R/B 4.0 16:53:15 10° S 16:58:46 58° WSW 17:04:23 10° NNW
Lacrosse 4 Rocket 3.6 16:57:44 10° NNE 16:59:23 12° NE 16:59:46 12° NE
Cosmos 1300 4.5 16:56:55 10° SE 17:03:17 10° NNE 16:57:58 16° SE
Okean 1 Rocket 4.0 16:57:37 10° SSW 17:01:49 50° WNW 17:06:04 10° N
ATLAS 5 CENTAUR R/B 1.9 16:58:59 10° S 17:02:32 36° ESE 17:04:05 26° ENE
Cosmos 405 Rocket 2.8 16:58:45 10° N 17:02:36 55° ENE 17:06:31 10° SSE
COSMO-SKYMED 1 3.3 17:03:25 10° N 17:07:41 56° WNW 17:11:56 10° SSW
Feng Yun 1-1 Rocket 4.2 17:04:20 10° SSE 17:09:49 87° WSW 17:15:30 10° NNW
Cosmos 2369 3.7 17:04:21 10° SSW 17:10:00 84° WNW 17:15:43 10° NNE
Cosmos 1605 Rocket 4.5 17:07:08 10° SSE 17:12:43 36° E 17:18:23 10° NNE
IRS-1C Rocket 4.0 17:10:32 10° SSE 17:15:42 64° ENE 17:20:56 10° N
CZ-4C R/B 4.2 17:16:24 10° N 17:19:43 43° WNW 17:22:55 10° SW
HJ-1C 3.1 17:17:52 23° SSE 17:19:47 83° E 17:23:03 10° N
H-2A R/B 3.0 17:16:32 10° S 17:20:55 65° WSW 17:25:11 10° NNW
Cosmos 1892 Rocket 3.8 17:17:13 10° NNW 17:21:41 70° W 17:26:05 10° S
Cosmos 1174 3.7 17:18:29 10° SW 17:21:44 57° NW 17:23:06 28° NNE
SL-08 RB Rocket 3.9 17:17:48 10° S 17:22:18 72° WSW 17:26:54 10° NNW
Cosmos 489 Rocket 4.4 17:17:35 10° NNW 17:23:50 73° ENE 17:29:10 14° SSE
Cosmos 1980 Rocket 2.2 17:18:39 10° SSW 17:24:19 84° WNW 17:30:03 10° NNE
Cosmos 389 Rocket 4.2 17:22:20 10° SW 17:25:25 32° WNW 17:28:33 10° N
Cosmos 2263 Rocket 2.0 17:22:14 10° NNW 17:27:50 73° ENE 17:31:01 26° SE
CSL-04 Debris 4.1 17:26:57 20° SSE 17:30:42 63° ENE 17:36:03 10° N
Cosmos 1269 Rocket 3.9 17:25:48 10° NNW 17:31:07 74° ENE 17:34:01 27° SSE
ARGOS 4.3 17:30:13 10° S 17:35:19 44° W 17:40:30 10° NNW
X-37B 1.3 17:33:18 10° WSW 17:35:50 47° SW 17:35:50 47° SW
Cosmos 724 4.2 17:35:42 10° NNW 17:41:42 78° NE 17:43:53 41° SE
Cosmos 1697 Rocket 4.2 17:38:08 10° WSW 17:43:18 35° NW 17:48:30 10° NNE
Cosmos 1626 Rocket 3.3 17:46:45 10° N 17:51:03 82° ENE 17:51:03 82° ENE
CSL-04 Rocket 3.6 17:48:31 28° SSE 17:51:31 85° ENE 17:57:07 10° NNW
Cosmos 371 Rocket 3.9 17:46:47 10° S 17:50:04 41° SSE 17:50:04 41° SSE
Iridium 4 Rocket 3.9 17:47:56 10° NNW 17:52:11 53° W 17:56:45 10° SSW
MetOp-A 4.1 17:49:39 19° S 17:53:34 82° WSW 17:58:57 10° NNW
Cosmos 2278 4.0 17:48:11 10° SW 17:53:48 67° WNW 17:59:30 10° NNE
CZ-2C R/B 4.3 17:49:46 10° N 17:54:49 35° WNW 17:59:48 10° SW
USA 215 4.3 17:54:42 23° NE 17:57:41 34° N 18:03:27 10° WNW
Cosmos 1934 Rocket 4.2 17:51:57 10° SSW 17:58:03 69° W 18:04:09 10° N
Gbstr 26 Del rocket 4.4 17:51:11 10° WNW 17:58:37 85° SSW 18:01:28 45° SE
Cosmos 2344 4.3 17:52:30 10° NW 18:01:20 63° NE 18:05:54 40° ESE
Meteor 1-11 4.3 17:57:37 10° NNW 18:03:12 72° W 18:06:55 22° S
Cosmos 1844 Rocket 3.7 17:58:40 10° NNW 18:02:40 31° NNE 18:02:40 31° NNE
CZ-4 R/B 3.6 18:04:22 10° SSW 18:07:37 24° W 18:10:56 10° NW
Okean-O 3.6 18:07:42 26° SSW 18:09:51 46° W 18:14:08 10° NNW
SL-16 R/B 3.0 18:05:30 10° SSW 18:08:50 36° S 18:08:50 36° S
H-2A R/B 3.6 18:15:12 10° N 18:18:51 32° WNW 18:22:32 10° SW
Resurs 01 Rocket 4.2 18:26:20 11° N 18:26:20 11° N 18:26:37 10° N
ATLAS 3B R/B 4.3 18:32:24 10° W 18:38:00 28° NNW 18:43:19 12° NNE
Lacrosse 4 Rocket 3.7 18:34:37 10° NNW 18:36:03 20° NNW 18:36:03 20° NNW
Cosmos 839 Rocket 4.2 18:35:52 10° NW 18:43:37 78° WSW 18:43:48 77° SW
ATLAS 5 CENTAUR R/B 3.6 18:43:35 10° W 18:45:39 23° WNW 18:45:39 23° WNW
CENTAUR R/B 4.5 18:59:19 10° NW 19:05:14 24° NNE 19:06:08 24° NNE
Cosmos 2263 Rocket 4.4 19:07:28 10° WNW 19:11:06 18° W 19:12:46 16° WSW
USA 215 4.5 19:42:03 35° NNW 19:42:03 35° NNW 19:46:03 10° NW
